SP8AQK-13 Weather Reports


time (UTC)temp
C
wind
direction
speed
KPH
gust
KPH
rain 1hr
cm
rain 24hr
cm
rain mn
cm
humidity
%
barometer
mb
20260905233418 15 0.0 0.0 0.00 0.00 0.00 82 1019.3
20260905231418 15 0.0 0.0 0.00 0.00 0.00 77 1019.2
20260905225417 15 0.0 0.0 0.00 0.00 0.00 78 1019.0
20260905223416 15 0.0 0.0 0.00 0.00 0.00 78 1019.4
20260905221415 15 0.0 0.0 0.00 0.00 0.00 78 1018.7
20260905215415 15 0.0 0.0 0.00 0.00 0.00 78 1018.6
20260905213414 15 0.0 0.0 0.00 0.00 0.00 82 1018.8
20260905211413 15 0.0 0.0 0.00 0.00 0.00 83 1018.8
20260905205413 13 0.0 0.0 0.00 0.00 0.00 86 1018.7
20260905203412 13 0.0 0.0 0.00 0.00 0.00 87 1018.8
20260905201411 13 0.0 0.0 0.00 0.00 0.00 89 1018.8
20260905193410 13 0.0 0.0 0.00 0.00 0.00 83 1018.6
20260905191409 14 0.0 0.0 0.00 0.00 0.00 81 1018.4
20260905185408 15 0.0 0.0 0.00 0.00 0.00 79 1018.4
20260905183408 16 0.0 0.0 0.00 0.00 0.00 76 1018.1
20260905181407 15 0.0 0.0 0.00 0.00 0.00 75 1018.1
20260905175406 16 0.0 0.0 0.00 0.00 0.00 76 1018.1
20260905173405 16 0.0 0.0 0.00 0.00 0.00 76 1017.8
20260905171405 17 0.0 0.0 0.00 0.00 0.00 68 1017.7
20260905165404 17 0.0 0.0 0.00 0.00 0.00 70 1017.5
20260905163403 17 0.0 0.0 0.00 0.00 0.00 67 1017.4
20260905161402 18 0.0 0.0 0.00 0.00 0.00 62 1017.0
20260905155402 18 0.0 0.0 0.00 0.00 0.00 61 1016.6
20260905153401 19 0.0 0.0 0.00 0.00 0.00 59 1016.4
20260905151401 20 0.0 0.0 0.00 0.00 0.00 58 1016.4
20260905145359 20 0.0 0.0 0.00 0.00 0.00 56 1016.2
20260905143359 20 0.0 0.0 0.00 0.00 0.00 56 1016.3
20260905141358 21 0.0 0.0 0.00 0.00 0.00 56 1016.0
20260905135357 22 0.0 0.0 0.00 0.00 0.00 53 1015.9
20260905133356 21 0.0 0.0 0.00 0.00 0.00 54 1015.9
20260905131356 22 0.0 0.0 0.00 0.00 0.00 54 1015.9
20260905125355 21 0.0 0.0 0.00 0.00 0.00 58 1016.1
20260905121353 21 0.0 0.0 0.00 0.00 0.00 58 1016.3
20260905115353 21 0.0 0.0 0.00 0.00 0.00 59 1016.5
20260905111351 20 0.0 0.0 0.00 0.00 0.00 61 1016.6
20260905105351 19 0.0 0.0 0.00 0.00 0.00 67 1016.7
20260905101349 20 0.0 0.0 0.00 0.00 0.00 68 1016.3
20260905095348 18 0.0 0.0 0.00 0.00 0.00 74 1016.4
20260905093348 18 0.0 0.0 0.00 0.00 0.00 82 1016.4
20260905091347 17 0.0 0.0 0.00 0.00 0.00 84 1016.6
20260905085346 17 0.0 0.0 0.00 0.00 0.00 85 1016.4
20260905081345 17 0.0 0.0 0.00 0.00 0.00 84 1016.0
20260905075344 17 0.0 0.0 0.00 0.00 0.00 87 1015.9
20260905073343 17 0.0 0.0 0.00 0.00 0.00 88 1015.5
20260905071343 17 0.0 0.0 0.00 0.00 0.00 95 1015.5
20260905063341 17 0.0 0.0 0.00 0.00 0.00 94 1015.1
20260905061341 17 0.0 0.0 0.00 0.00 0.00 95 1014.6
20260905055340 17 0.0 0.0 0.00 0.00 0.00 96 1014.7
20260905053339 17 0.0 0.0 0.00 0.00 0.00 96 1014.4
20260905051338 17 0.0 0.0 0.00 0.00 0.00 88 1014.2
20260905045338 17 0.0 0.0 0.00 0.00 0.00 84 1013.6
20260905043337 17 0.0 0.0 0.00 0.00 0.00 77 1013.3
20260905041336 17 0.0 0.0 0.00 0.00 0.00 72 1013.3
20260905035335 17 0.0 0.0 0.00 0.00 0.00 77 1013.2
20260905033335 18 0.0 0.0 0.00 0.00 0.00 73 1013.1
20260905031334 18 0.0 0.0 0.00 0.00 0.00 73 1012.9
20260905025333 18 0.0 0.0 0.00 0.00 0.00 75 1012.6
20260905023332 18 0.0 0.0 0.00 0.00 0.00 82 1013.0
20260905021332 19 0.0 0.0 0.00 0.00 0.00 82 1012.3
20260905015331 19 0.0 0.0 0.00 0.00 0.00 89 1012.0
20260905013330 19 0.0 0.0 0.00 0.00 0.00 84 1011.9
20260905011330 18 0.0 0.0 0.00 0.00 0.00 93 1011.7
20260905005329 18 0.0 0.0 0.00 0.00 0.00 88 1010.9
20260905003328 18 0.0 0.0 0.00 0.00 0.00 84 1010.3
20260905001327 19 0.0 0.0 0.00 0.00 0.00 78 1010.0
20260904235327 20 0.0 0.0 0.00 0.00 0.00 76 1010.0